Time,TemperatureF,DewpointF,PressureIn,WindDirection,WindDirectionDegrees,WindSpeedMPH,WindSpeedGustMPH,Humidity,HourlyPrecipIn,Conditions,Clouds,dailyrainin,SoftwareType,DateUTC
2013-03-16 00:02:00,46.0,39.0,29.87,ESE,107,7.0,11.0,75,0.00,,,0.00,,2013-03-16 04:02:00,
2013-03-16 00:13:00,46.0,39.0,29.87,ESE,107,7.0,11.0,75,0.00,,,0.00,,2013-03-16 04:13:00,
2013-03-16 00:23:00,46.0,39.0,29.87,SE,142,4.0,8.0,77,0.00,,,0.00,,2013-03-16 04:23:00,
2013-03-16 00:33:00,46.0,39.0,29.87,ESE,112,4.0,7.0,77,0.00,,,0.00,,2013-03-16 04:33:00,
2013-03-16 00:43:00,46.0,39.0,29.87,ESE,112,4.0,7.0,77,0.00,,,0.00,,2013-03-16 04:43:00,
2013-03-16 00:53:00,46.0,40.0,29.86,ESE,102,4.0,7.0,78,0.00,,,0.00,,2013-03-16 04:53:00,
2013-03-16 01:02:00,45.0,39.0,29.85,ESE,107,4.0,8.0,80,0.00,,,0.00,,2013-03-16 05:02:00,
2013-03-16 01:12:00,45.0,39.0,29.85,ESE,107,4.0,8.0,80,0.00,,,0.00,,2013-03-16 05:12:00,
2013-03-16 01:22:00,44.0,39.0,29.85,ENE,74,3.0,6.0,84,0.04,,,0.04,,2013-03-16 05:22:00,
2013-03-16 01:32:00,43.0,40.0,29.83,ESE,118,6.0,9.0,88,0.10,,,0.10,,2013-03-16 05:32:00,
2013-03-16 01:42:00,43.0,40.0,29.83,ESE,118,6.0,9.0,88,0.10,,,0.10,,2013-03-16 05:42:00,
2013-03-16 01:53:00,43.0,40.0,29.80,SSE,159,7.0,18.0,89,0.13,,,0.13,,2013-03-16 05:53:00,
2013-03-16 02:02:00,44.0,41.0,29.81,SE,130,7.0,10.0,88,0.14,,,0.14,,2013-03-16 06:02:00,
2013-03-16 02:12:00,44.0,41.0,29.81,SE,130,7.0,10.0,88,0.14,,,0.14,,2013-03-16 06:12:00,
2013-03-16 02:22:00,44.0,41.0,29.80,ESE,109,6.0,11.0,89,0.10,,,0.14,,2013-03-16 06:22:00,
2013-03-16 02:32:00,44.0,41.0,29.77,East,100,7.0,16.0,89,0.03,,,0.14,,2013-03-16 06:32:00,
2013-03-16 02:42:00,44.0,41.0,29.77,East,100,7.0,16.0,89,0.03,,,0.14,,2013-03-16 06:42:00,
2013-03-16 02:52:00,44.0,41.0,29.77,South,173,7.0,13.0,88,0.01,,,0.14,,2013-03-16 06:52:00,
2013-03-16 03:02:00,44.0,41.0,29.76,SE,142,5.0,12.0,89,0.00,,,0.14,,2013-03-16 07:02:00,
2013-03-16 03:12:00,44.0,41.0,29.76,SE,142,5.0,12.0,89,0.00,,,0.14,,2013-03-16 07:12:00,
2013-03-16 03:22:00,43.0,40.0,29.75,SSE,165,5.0,13.0,90,0.00,,,0.14,,2013-03-16 07:22:00,
2013-03-16 03:32:00,43.0,40.0,29.75,SSE,165,5.0,13.0,90,0.00,,,0.14,,2013-03-16 07:32:00,
2013-03-16 03:42:00,43.0,40.0,29.75,SSE,165,5.0,13.0,90,0.00,,,0.14,,2013-03-16 07:42:00,
2013-03-16 03:52:00,43.0,41.0,29.75,SSE,165,4.0,10.0,92,0.00,,,0.14,,2013-03-16 07:52:00,
2013-03-16 04:03:00,43.0,41.0,29.74,SE,144,5.0,10.0,92,0.00,,,0.14,,2013-03-16 08:03:00,
2013-03-16 04:12:00,43.0,41.0,29.74,SE,144,5.0,10.0,92,0.00,,,0.14,,2013-03-16 08:12:00,
2013-03-16 04:23:00,43.0,41.0,29.74,SE,144,5.0,10.0,92,0.00,,,0.14,,2013-03-16 08:23:00,
2013-03-16 04:32:00,43.0,41.0,29.73,SSE,153,2.0,6.0,92,0.00,,,0.14,,2013-03-16 08:32:00,
2013-03-16 04:42:00,43.0,41.0,29.73,SSE,153,2.0,6.0,92,0.00,,,0.14,,2013-03-16 08:42:00,
2013-03-16 04:52:00,43.0,41.0,29.72,SSE,157,4.0,8.0,92,0.00,,,0.14,,2013-03-16 08:52:00,
2013-03-16 05:02:00,43.0,41.0,29.71,SSE,155,3.0,8.0,92,0.00,,,0.14,,2013-03-16 09:02:00,
2013-03-16 05:12:00,43.0,41.0,29.71,SSE,155,3.0,8.0,92,0.00,,,0.14,,2013-03-16 09:12:00,
2013-03-16 05:22:00,43.0,41.0,29.71,South,173,3.0,7.0,93,0.00,,,0.14,,2013-03-16 09:22:00,
2013-03-16 05:33:00,43.0,41.0,29.71,South,190,0.0,6.0,93,0.00,,,0.14,,2013-03-16 09:33:00,
2013-03-16 05:42:00,43.0,41.0,29.71,South,190,0.0,6.0,93,0.00,,,0.14,,2013-03-16 09:42:00,
2013-03-16 05:53:00,43.0,41.0,29.71,South,190,0.0,6.0,93,0.00,,,0.14,,2013-03-16 09:53:00,
2013-03-16 06:03:00,43.0,41.0,29.70,South,171,2.0,8.0,94,0.00,,,0.14,,2013-03-16 10:03:00,
2013-03-16 06:12:00,43.0,41.0,29.70,South,171,2.0,8.0,94,0.00,,,0.14,,2013-03-16 10:12:00,
2013-03-16 06:23:00,43.0,41.0,29.70,South,171,2.0,8.0,94,0.00,,,0.14,,2013-03-16 10:23:00,
2013-03-16 06:32:00,43.0,41.0,29.70,SSE,166,1.0,5.0,93,0.00,,,0.14,,2013-03-16 10:32:00,
2013-03-16 06:42:00,43.0,41.0,29.70,SSE,166,1.0,5.0,93,0.00,,,0.14,,2013-03-16 10:42:00,
2013-03-16 06:53:00,43.0,41.0,29.70,SSE,167,3.0,5.0,93,0.00,,,0.14,,2013-03-16 10:53:00,
2013-03-16 07:03:00,43.0,41.0,29.70,South,184,3.0,6.0,93,0.00,,,0.14,,2013-03-16 11:03:00,
2013-03-16 07:12:00,43.0,41.0,29.70,South,184,3.0,6.0,93,0.00,,,0.14,,2013-03-16 11:12:00,
2013-03-16 07:22:00,43.0,41.0,29.70,South,179,2.0,5.0,93,0.00,,,0.14,,2013-03-16 11:22:00,
2013-03-16 07:32:00,43.0,41.0,29.70,South,179,2.0,5.0,93,0.00,,,0.14,,2013-03-16 11:32:00,
2013-03-16 07:43:00,43.0,41.0,29.70,South,179,2.0,5.0,93,0.00,,,0.14,,2013-03-16 11:43:00,
2013-03-16 07:53:00,43.0,41.0,29.70,South,179,2.0,5.0,93,0.00,,,0.14,,2013-03-16 11:53:00,
2013-03-16 08:02:00,43.0,41.0,29.69,South,186,0.0,8.0,94,0.00,,,0.14,,2013-03-16 12:02:00,
2013-03-16 08:12:00,43.0,41.0,29.69,South,186,0.0,8.0,94,0.00,,,0.14,,2013-03-16 12:12:00,
2013-03-16 08:22:00,44.0,42.0,29.69,WSW,237,1.0,5.0,94,0.00,,,0.14,,2013-03-16 12:22:00,
2013-03-16 08:32:00,45.0,43.0,29.68,SW,234,2.0,5.0,93,0.00,,,0.14,,2013-03-16 12:32:00,
2013-03-16 08:42:00,45.0,43.0,29.68,SW,234,2.0,5.0,93,0.00,,,0.14,,2013-03-16 12:42:00,
2013-03-16 08:53:00,46.0,44.0,29.69,WSW,252,3.0,5.0,92,0.00,,,0.14,,2013-03-16 12:53:00,
2013-03-16 09:02:00,47.0,45.0,29.68,SW,232,3.0,7.0,91,0.00,,,0.14,,2013-03-16 13:02:00,
2013-03-16 09:12:00,47.0,45.0,29.68,SW,232,3.0,7.0,91,0.00,,,0.14,,2013-03-16 13:12:00,
2013-03-16 09:22:00,47.0,44.0,29.69,West,260,1.0,6.0,90,0.00,,,0.14,,2013-03-16 13:22:00,
2013-03-16 09:32:00,48.0,45.0,29.70,WSW,246,5.0,7.0,90,0.00,,,0.14,,2013-03-16 13:32:00,
2013-03-16 09:42:00,48.0,45.0,29.70,WSW,246,5.0,7.0,90,0.00,,,0.14,,2013-03-16 13:42:00,
2013-03-16 09:52:00,49.0,46.0,29.71,WNW,284,6.0,10.0,90,0.00,,,0.14,,2013-03-16 13:52:00,
2013-03-16 10:03:00,51.0,48.0,29.71,West,273,5.0,12.0,88,0.00,,,0.14,,2013-03-16 14:03:00,
2013-03-16 10:12:00,51.0,48.0,29.71,West,273,5.0,12.0,88,0.00,,,0.14,,2013-03-16 14:12:00,
2013-03-16 10:22:00,52.0,48.0,29.71,West,274,7.0,11.0,87,0.00,,,0.14,,2013-03-16 14:22:00,
2013-03-16 10:32:00,53.0,48.0,29.71,NW,304,7.0,14.0,84,0.00,,,0.14,,2013-03-16 14:32:00,
2013-03-16 10:42:00,53.0,48.0,29.71,NW,304,7.0,14.0,84,0.00,,,0.14,,2013-03-16 14:42:00,
2013-03-16 11:03:00,53.0,48.0,29.72,NNW,348,9.0,19.0,82,0.00,,,0.14,,2013-03-16 15:03:00,
2013-03-16 11:13:00,53.0,48.0,29.72,NNW,348,9.0,19.0,82,0.00,,,0.14,,2013-03-16 15:13:00,
2013-03-16 11:22:00,52.0,46.0,29.73,NW,314,8.0,16.0,80,0.00,,,0.14,,2013-03-16 15:22:00,
2013-03-16 11:33:00,52.0,46.0,29.74,North,355,7.0,15.0,80,0.00,,,0.14,,2013-03-16 15:33:00,
2013-03-16 11:43:00,52.0,46.0,29.74,North,355,7.0,15.0,80,0.00,,,0.14,,2013-03-16 15:43:00,
2013-03-16 11:53:00,53.0,46.0,29.75,NNW,336,7.0,15.0,78,0.00,,,0.14,,2013-03-16 15:53:00,
2013-03-16 12:03:00,53.0,46.0,29.77,North,355,7.0,20.0,78,0.00,,,0.14,,2013-03-16 16:03:00,
2013-03-16 12:13:00,53.0,46.0,29.77,North,355,7.0,20.0,78,0.00,,,0.14,,2013-03-16 16:13:00,
2013-03-16 12:23:00,53.0,46.0,29.77,North,355,7.0,20.0,78,0.00,,,0.14,,2013-03-16 16:23:00,
2013-03-16 12:33:00,52.0,45.0,29.78,NNW,332,9.0,18.0,77,0.00,,,0.14,,2013-03-16 16:33:00,
2013-03-16 12:42:00,52.0,45.0,29.78,NNW,332,9.0,18.0,77,0.00,,,0.14,,2013-03-16 16:42:00,
2013-03-16 12:52:00,52.0,45.0,29.79,NW,314,10.0,19.0,77,0.00,,,0.14,,2013-03-16 16:52:00,
2013-03-16 13:03:00,52.0,45.0,29.80,NW,321,8.0,21.0,78,0.00,,,0.14,,2013-03-16 17:03:00,
2013-03-16 13:13:00,52.0,45.0,29.80,NW,321,8.0,21.0,78,0.00,,,0.14,,2013-03-16 17:13:00,
2013-03-16 13:23:00,51.0,44.0,29.81,NNW,329,14.0,25.0,76,0.00,,,0.14,,2013-03-16 17:23:00,
2013-03-16 13:33:00,50.0,43.0,29.83,NNW,332,11.0,22.0,78,0.00,,,0.14,,2013-03-16 17:33:00,
2013-03-16 13:43:00,50.0,43.0,29.83,NNW,332,11.0,22.0,78,0.00,,,0.14,,2013-03-16 17:43:00,
2013-03-16 13:52:00,49.0,43.0,29.84,NNW,347,11.0,23.0,79,0.00,,,0.14,,2013-03-16 17:52:00,
2013-03-16 14:03:00,49.0,43.0,29.85,NNW,346,10.0,21.0,80,0.00,,,0.14,,2013-03-16 18:03:00,
2013-03-16 14:13:00,49.0,43.0,29.85,NNW,346,10.0,21.0,80,0.00,,,0.14,,2013-03-16 18:13:00,
2013-03-16 14:23:00,48.0,42.0,29.85,NNW,330,12.0,19.0,80,0.00,,,0.14,,2013-03-16 18:23:00,
2013-03-16 14:33:00,48.0,42.0,29.86,NNW,329,8.0,20.0,80,0.00,,,0.14,,2013-03-16 18:33:00,
2013-03-16 14:43:00,48.0,42.0,29.86,NNW,329,8.0,20.0,80,0.00,,,0.14,,2013-03-16 18:43:00,
2013-03-16 14:52:00,47.0,41.0,29.88,NW,326,11.0,20.0,80,0.00,,,0.14,,2013-03-16 18:52:00,
2013-03-16 15:02:00,47.0,41.0,29.89,NNW,344,10.0,21.0,81,0.00,,,0.14,,2013-03-16 19:02:00,
2013-03-16 15:12:00,47.0,41.0,29.89,NNW,344,10.0,21.0,81,0.00,,,0.14,,2013-03-16 19:12:00,
2013-03-16 15:22:00,46.0,41.0,29.89,North,355,9.0,19.0,81,0.00,,,0.14,,2013-03-16 19:22:00,
2013-03-16 15:33:00,46.0,41.0,29.90,NNW,327,11.0,21.0,81,0.00,,,0.14,,2013-03-16 19:33:00,
2013-03-16 15:42:00,46.0,41.0,29.90,NNW,327,11.0,21.0,81,0.00,,,0.14,,2013-03-16 19:42:00,
2013-03-16 15:52:00,46.0,41.0,29.91,WNW,285,8.0,19.0,83,0.00,,,0.14,,2013-03-16 19:52:00,
2013-03-16 16:02:00,45.0,40.0,29.90,NW,323,7.0,15.0,83,0.00,,,0.14,,2013-03-16 20:02:00,
2013-03-16 16:12:00,45.0,40.0,29.90,NW,323,7.0,15.0,83,0.00,,,0.14,,2013-03-16 20:12:00,
2013-03-16 16:22:00,45.0,40.0,29.90,NNW,330,7.0,16.0,82,0.00,,,0.14,,2013-03-16 20:22:00,
2013-03-16 16:33:00,45.0,40.0,29.90,NNW,330,7.0,16.0,82,0.00,,,0.14,,2013-03-16 20:33:00,
2013-03-16 16:42:00,45.0,40.0,29.90,NNW,330,7.0,16.0,82,0.00,,,0.14,,2013-03-16 20:42:00,
2013-03-16 16:52:00,45.0,40.0,29.92,NW,320,7.0,15.0,83,0.00,,,0.14,,2013-03-16 20:52:00,
2013-03-16 17:02:00,44.0,39.0,29.93,NE,53,7.0,15.0,83,0.00,,,0.14,,2013-03-16 21:02:00,
2013-03-16 17:12:00,44.0,39.0,29.93,NE,53,7.0,15.0,83,0.00,,,0.14,,2013-03-16 21:12:00,
2013-03-16 17:23:00,44.0,40.0,29.95,North,360,7.0,14.0,85,0.00,,,0.14,,2013-03-16 21:23:00,
2013-03-16 17:33:00,42.0,39.0,29.95,North,11,5.0,13.0,88,0.00,,,0.14,,2013-03-16 21:33:00,
2013-03-16 17:43:00,42.0,39.0,29.95,North,11,5.0,13.0,88,0.00,,,0.14,,2013-03-16 21:43:00,
2013-03-16 18:03:00,40.0,38.0,29.97,NNE,19,8.0,13.0,91,0.00,,,0.14,,2013-03-16 22:03:00,
2013-03-16 18:13:00,40.0,38.0,29.97,NNE,19,8.0,13.0,91,0.00,,,0.14,,2013-03-16 22:13:00,
2013-03-16 18:23:00,40.0,38.0,29.98,North,355,6.0,13.0,93,0.00,,,0.14,,2013-03-16 22:23:00,
2013-03-16 18:33:00,39.0,37.0,29.99,North,355,6.0,13.0,94,0.00,,,0.14,,2013-03-16 22:33:00,
2013-03-16 18:42:00,39.0,37.0,29.99,North,355,6.0,13.0,94,0.00,,,0.14,,2013-03-16 22:42:00,
2013-03-16 18:52:00,39.0,37.0,30.00,NE,40,4.0,13.0,94,0.00,,,0.14,,2013-03-16 22:52:00,
2013-03-16 19:02:00,39.0,37.0,30.00,NE,40,4.0,13.0,94,0.00,,,0.14,,2013-03-16 23:02:00,
2013-03-16 19:13:00,39.0,37.0,30.00,NE,40,4.0,13.0,94,0.00,,,0.14,,2013-03-16 23:13:00,
2013-03-16 19:23:00,38.0,36.0,30.01,North,9,6.0,10.0,94,0.00,,,0.14,,2013-03-16 23:23:00,
2013-03-16 19:33:00,38.0,36.0,30.01,NE,36,4.0,12.0,93,0.00,,,0.14,,2013-03-16 23:33:00,
2013-03-16 19:42:00,38.0,36.0,30.01,NE,36,4.0,12.0,93,0.00,,,0.14,,2013-03-16 23:42:00,
2013-03-16 19:52:00,38.0,36.0,30.02,NE,44,3.0,10.0,92,0.00,,,0.14,,2013-03-16 23:52:00,
2013-03-16 20:02:00,38.0,36.0,30.02,NNE,30,6.0,10.0,91,0.00,,,0.14,,2013-03-17 00:02:00,
2013-03-16 20:13:00,38.0,36.0,30.02,NNE,30,6.0,10.0,91,0.00,,,0.14,,2013-03-17 00:13:00,
2013-03-16 20:23:00,38.0,36.0,30.02,NNE,30,6.0,10.0,91,0.00,,,0.14,,2013-03-17 00:23:00,
2013-03-16 20:33:00,38.0,35.0,30.02,North,5,5.0,11.0,90,0.00,,,0.14,,2013-03-17 00:33:00,
2013-03-16 20:43:00,38.0,35.0,30.02,North,5,5.0,11.0,90,0.00,,,0.14,,2013-03-17 00:43:00,
2013-03-16 20:53:00,37.0,35.0,30.02,NE,34,4.0,11.0,91,0.00,,,0.14,,2013-03-17 00:53:00,
2013-03-16 21:03:00,37.0,35.0,30.02,ENE,76,5.0,9.0,91,0.00,,,0.14,,2013-03-17 01:03:00,
2013-03-16 21:12:00,37.0,35.0,30.02,ENE,76,5.0,9.0,91,0.00,,,0.14,,2013-03-17 01:12:00,
2013-03-16 21:22:00,37.0,35.0,30.02,NNE,31,2.0,8.0,92,0.00,,,0.14,,2013-03-17 01:22:00,
2013-03-16 21:32:00,36.0,34.0,30.03,NNE,32,4.0,10.0,93,0.00,,,0.14,,2013-03-17 01:32:00,
2013-03-16 21:42:00,36.0,34.0,30.03,NNE,32,4.0,10.0,93,0.00,,,0.14,,2013-03-17 01:42:00,
2013-03-16 21:52:00,36.0,34.0,30.04,ENE,59,4.0,8.0,93,0.00,,,0.14,,2013-03-17 01:52:00,
2013-03-16 22:03:00,36.0,34.0,30.05,NNE,26,3.0,8.0,92,0.00,,,0.14,,2013-03-17 02:03:00,
2013-03-16 22:13:00,36.0,34.0,30.05,NNE,26,3.0,8.0,92,0.00,,,0.14,,2013-03-17 02:13:00,
2013-03-16 22:22:00,36.0,34.0,30.07,NNE,19,5.0,8.0,92,0.00,,,0.14,,2013-03-17 02:22:00,
2013-03-16 22:33:00,36.0,34.0,30.08,North,5,5.0,7.0,91,0.00,,,0.14,,2013-03-17 02:33:00,
2013-03-16 22:43:00,36.0,34.0,30.08,North,5,5.0,7.0,91,0.00,,,0.14,,2013-03-17 02:43:00,
2013-03-16 22:52:00,36.0,34.0,30.09,NNW,340,3.0,7.0,92,0.00,,,0.14,,2013-03-17 02:52:00,
2013-03-16 23:03:00,36.0,34.0,30.09,NNW,346,2.0,5.0,91,0.00,,,0.14,,2013-03-17 03:03:00,
2013-03-16 23:12:00,36.0,34.0,30.09,NNW,346,2.0,5.0,91,0.00,,,0.14,,2013-03-17 03:12:00,
2013-03-16 23:23:00,36.0,34.0,30.09,NNE,16,2.0,6.0,91,0.00,,,0.14,,2013-03-17 03:23:00,
2013-03-16 23:34:00,36.0,34.0,30.09,NNE,32,6.0,9.0,91,0.00,,,0.14,,2013-03-17 03:34:00,
2013-03-16 23:43:00,36.0,34.0,30.09,NNE,32,6.0,9.0,91,0.00,,,0.14,,2013-03-17 03:43:00,
2013-03-16 23:52:00,36.0,34.0,30.10,NNE,22,3.0,8.0,92,0.00,,,0.14,,2013-03-17 03:52:00,